This is the latest recevied weather packets stored in our database for station/object KE8WMS. If no packets are shown the sender has not sent any weather packets the latest 10 day(s).
| Time | Temp. | Humidity | Pressure | Rain* | Wind** | Luminosity | Snow |
|---|---|---|---|---|---|---|---|
| 1787489375 | 16.67° C | 98% | 1008.8 hPa | 0 mm | - | 116 W/m² | - |
| 1787489070 | 16.67° C | 99% | 1008.7 hPa | 0 mm | - | 87 W/m² | - |
| 1787488765 | 16.67° C | 99% | 1008.5 hPa | 0 mm | - | 61 W/m² | - |
| 1787488461 | 16.11° C | 99% | 1008.6 hPa | 0 mm | - | 61 W/m² | - |
| 1787488160 | 16.11° C | 99% | 1008.5 hPa | 0 mm | - | 48 W/m² | - |
| 1787487859 | 16.11° C | 99% | 1008.5 hPa | 0 mm | - | 72 W/m² | - |
| 1787487556 | 16.11° C | 99% | 1008.4 hPa | 0 mm | - | 52 W/m² | - |
| 1787487252 | 16.11° C | 99% | 1008.1 hPa | 0 mm | - | 43 W/m² | - |
| 1787486948 | 16.11° C | 99% | 1008.2 hPa | 0 mm | - | 69 W/m² | - |
| 1787486643 | 15.56° C | 99% | 1008.3 hPa | 0 mm | - | 59 W/m² | - |
| 1787486341 | 15.56° C | 99% | 1008.1 hPa | 0 mm | - | 36 W/m² | - |
| 1787486037 | 15.56° C | 99% | 1008 hPa | 0 mm | - | 35 W/m² | - |
| 1787485733 | 15.56° C | 99% | 1008.1 hPa | 0 mm | - | 41 W/m² | - |
| 1787485428 | 15.56° C | 99% | 1008 hPa | 0 mm | - | 24 W/m² | - |
| 1787485123 | 15.56° C | 99% | 1007.7 hPa | 0 mm | - | 22 W/m² | - |
| 1787484819 | 15.56° C | 99% | 1008.1 hPa | 0 mm | - | 18 W/m² | - |
| 1787484516 | 15.56° C | 99% | 1008.2 hPa | 0 mm | - | 16 W/m² | - |
| 1787484211 | 15.56° C | 99% | 1008.1 hPa | 0 mm | - | 15 W/m² | - |
| 1787483907 | 15.56° C | 99% | 1008 hPa | 0 mm | - | 14 W/m² | - |
| 1787483604 | 15.56° C | 99% | 1007.6 hPa | 0 mm | - | 11 W/m² | - |
| 1787483300 | 15.56° C | 99% | 1008.1 hPa | 0 mm | - | 9 W/m² | - |
| 1787482995 | 15.56° C | 99% | 1007.7 hPa | 0 mm | - | 7 W/m² | - |
| 1787482691 | 15.56° C | 99% | 1007.7 hPa | 0 mm | - | 5 W/m² | - |
| 1787482387 | 15.56° C | 99% | 1008 hPa | 0 mm | - | 4 W/m² | - |
| 1787482083 | 15.56° C | 99% | 1007.8 hPa | 0 mm | - | 2 W/m² | - |
* Rain latest hour (hover to see other rain measurements)
** Current wind speed in m/s (hover to see current wind gust speed)